Location: Mountain View
(37.3861°N, 122.0839°W)
Time: 21:55:43
(UTC-07:00)

ISS - Pass Details

Date: 06 October 2021
Orbit: 417 x 423 km, 51.6° (Epoch: 27 October)

Event Time Altitude Azimuth Distance (km) Brightness Sun altitude
Rises 19:55:09 0° 304° (NW) 2,362 1.1 -15.1°
Reaches altitude 10° 19:57:18 10° 298° (WNW) 1,496 0.1 -15.5°
Maximum altitude 20:00:31 45° 225° (SW) 583 -2.8 -16.1°
Enters shadow 20:02:36 19° 159° (SSE) 1,061 -2.0 -16.5°
